www.pogodaiklimat.ru

Погода и климат >> Архив погоды >> Испания >> Madrid


АРХИВ ПОГОДЫ в Madrid

Время (UTC), дата Ветер
(напр.,м/с)
 
Видим.   Явления Облачность Т
(С)
Тd
(С)
f
(%)
Тe
(С)
Тes
(С)
Комфортность P
(гПа)
Po
(гПа)
Тmin
(С)
Tmax
(С)
R
(мм)
R24
(мм)
S
(см)
05 17.05 штиль 0 30 км 9/0
[Ac trans Cs]
+15.9 +7.0 55 +16 +16 тепло 1021.0 953.8
04 17.05 штиль 0 30 км 10/0
[Ac trans Cs]
+16.4 +5.8 49 +16 +16 тепло 1021.1 954.0
06 17.05 В 1 30 км 9/0
[Ac trans Cs]
+16.2 +7.6 57 +17 +18 тепло 1020.5 953.5 +15.9
07 17.05 С 3 30 км 9/0
[Ac trans Cs]
+19.0 +6.6 44 +20 +21 тепло 1020.0 953.6
08 17.05 В 2 40 км 9/0
[Ac trans Cs]
+20.6 +3.6 33 +22 +26 комфорт 1019.3 953.3
09 17.05 В 3 30 км 9/0
[Ac trans Cs]
+22.8 +1.3 24 +22 +27 комфорт 1018.4 952.8
11 17.05 В 3 30 км 9/0
[Ac trans Cs]
+24.8 +4.9 28 +24 +36 комфорт 1017.0 952.0
10 17.05 ЮВ 4 22 км 10/0
[Ac trans Cs]
+24.0 +3.4 26 +23 +31 комфорт 1017.8 952.5
12 17.05 ЮВ 4 30 км 9/0
[Cs]
+25.3 +6.5 30 +25 +37 комфорт 1016.1 951.3
13 17.05 ЮВ 3 30 км 9/0
[Cs]
+27.3 +6.4 26 +27 +39 жарко 1014.6 950.3
14 17.05 Ю 3 30 км 9/0
[Cs]
+28.7 +5.7 23 +27 +40 жарко 1013.3 949.4
15 17.05 Ю 4 30 км 8/0
[Cs]
+29.2 +6.7 24 +28 +35 жарко 1012.3 948.6
17 17.05 З 7 30 км 8/0
[Cs]
+26.7 +9.8 35 +27 +28 жарко 1012.2 948.0
16 17.05 ЮЗ 4 30 км 8/0
[Cs]
+28.2 +6.9 26 +27 +32 жарко 1011.8 947.9
18 17.05 С 7 30 км 10/0
[Ac und Cs]
+23.2 +11.4 47 +25 +26 комфорт 1013.5 948.5 +29.4
19 17.05 С 4 30 км 10/0
[Ac und Cs]
+22.0 +11.2 50 +24 +24 комфорт 1013.7 948.4
20 17.05 СВ 1 30 км 9/0
[Ac und Cs]
+20.9 +11.0 53 +24 +24 комфорт 1014.1 948.5
21 17.05 штиль 0 30 км 9/0
[Ac und Cs]
+18.8 +11.1 61 +19 +19 тепло 1014.6 948.6
23 17.05 СВ 2 30 км 5/0
[Ac und Cs]
+18.5 +10.6 60 +19 +19 тепло 1013.7 947.7
22 17.05 СВ 2 30 км 9/0
[Ac und Cs]
+19.2 +10.5 57 +21 +21 комфорт 1014.0 948.2
00 18.05 СВ 2 30 км 5/0
[Ac und Cs]
+17.5 +10.8 65 +18 +18 тепло 1013.5 947.3
01 18.05 СВ 2 30 км 5/0
[Ac und Cs]
+18.5 +10.6 60 +19 +19 тепло 1013.7 947.7
02 18.05 С 2 30 км 9/0
[Ac und Cs]
+17.3 +11.9 71 +18 +18 тепло 1012.9 946.7
03 18.05 СВ 2 30 км 5/0
[Ac und Cs]
+17.5 +10.8 65 +18 +18 тепло 1013.5 947.3
05 18.05 С 2 9000 м дождь {морось} 10/1 300 м
[Frnb Ac As Cs]
+14.9 +13.9 94 +15 +15 тепло 1011.3 944.7
04 18.05 СЗ 2 30 км слабая морось {гроза, дождь} 8/1 2000 м
[Sc diur, vesp Ac As Cs]
+15.1 +13.4 90 +15 +15 тепло 1012.2 945.6
06 18.05 В 2 30 км в посл. час дождь 10/1 1000 м
[Frnb Ac As Cs]
+14.8 +13.7 93 +15 +15 тепло 1011.4 944.8 +14.6 1
07 18.05 штиль 0 30 км 9/4 300 м
[Frnb Ac As Cs]
+15.0 +13.1 88 +15 +16 по сезону 1011.9 945.3
08 18.05 ЮВ 1 30 км 9/4 300 м
[Frnb Ac As Cs]
+16.3 +12.0 76 +17 +20 тепло 1011.8 945.5
09 18.05 Ю 4 30 км 9/8 600 м
[Cb calv Ac As Cs]
+17.0 +13.7 81 +17 +18 тепло 1011.6 945.5
11 18.05 ЮЗ 7 30 км 8/5 1000 м
[Cu Sc Ac As Cs]
+20.2 +9.2 49 +21 +23 комфорт 1011.0 945.5
10 18.05 З 7 30 км 9/8 300 м
[Cu Sc Ac As Cs]
+18.8 +10.9 60 +19 +20 прохладно 1011.2 945.5
12 18.05 З 8 30 км 8/5 1500 м
[Cu Sc Ac As Cs]
+20.4 +9.1 48 +21 +23 комфорт 1011.3 945.8
13 18.05 З 8 30 км 8/5 1500 м
[Cu Sc Ac As Cs]
+21.4 +6.8 39 +22 +23 комфорт 1011.7 946.3
14 18.05 З 11 30 км н/о +20.6 +6.4 40 +21 +21 комфорт 1012.5 946.9
15 18.05 СЗ 7 30 км 5/4 2000 м
[Cu hum Ac und]
+20.7 +4.2 34 +21 +23 комфорт 1013.1 947.5
17 18.05 С 6 30 км 3/3 2000 м
[Cu hum]
+19.8 +1.6 30 +20 +21 прохладно 1014.3 948.4
16 18.05 С 5 30 км н/о +20.3 +3.8 34 +21 +21 комфорт 1013.7 948.0
18 18.05 С 4 30 км 3/3 2000 м
[Cu hum]
+19.4 +0.7 29 +20 +20 по сезону 1014.9 948.9 +23.4
19 18.05 С 5 30 км 1/0 2000 м
[Ci fib]
+17.7 +3.7 39 +17 +17 по сезону 1015.9 949.5
20 18.05 С 2 30 км 1/0
[Ac lent]
+15.2 +4.7 49 +15 +15 по сезону 1017.3 950.2
21 18.05 штиль 0 30 км ясно +13.1 +4.0 54 +13 +13 прохладно 1018.7 951.1
23 18.05 В 1 30 км 3/0
[Ac trans]
+11.7 +4.9 63 +12 +12 по сезону 1019.2 951.2
22 18.05 В 2 30 км 1/0
[Ac trans]
+12.5 +4.9 60 +12 +12 по сезону 1019.1 951.3
00 19.05 СЗ 1 30 км ясно +10.8 +4.8 66 +11 +11 по сезону 1019.3 951.1
01 19.05 СВ 3 30 км ясно +10.0 +5.3 73 +8 +8 по сезону 1019.4 951.0
02 19.05 СВ 1 30 км н/о +9.3 +4.8 73 +9 +9 по сезону 1020.0 951.4
03 19.05 С 1 30 км ясно +8.4 +4.6 77 +8 +8 прохладно 1020.3 951.4
05 19.05 С 1 30 км ясно +6.9 +4.8 86 +6 +6 по сезону 1021.0 951.7
04 19.05 С 1 30 км ясно +7.1 +4.8 85 +6 +6 прохладно 1020.5 951.3
06 19.05 С 2 30 км ясно +8.1 +5.8 85 +7 +7 прохладно 1021.5 952.5 +6.3
07 19.05 Ю 1 30 км ясно +11.4 +5.5 67 +11 +15 прохладно 1021.1 952.9
08 19.05 ЮВ 1 30 км ясно +13.5 +4.8 56 +14 +22 по сезону 1020.9 953.2
09 19.05 С 1 30 км ясно +15.3 +3.7 46 +16 +29 опасность
простуды
1020.3 953.0
11 19.05 Ю 3 30 км 1/1 1000 м
[Sc]
+18.8 +3.3 36 +19 +34 опасность
простуды
1018.9 952.5
10 19.05 Ю 2 25 км 1/1 600 м
[Cu hum]
+17.4 +3.8 40 +18 +31 опасность
простуды
1019.7 952.9
12 19.05 З 3 30 км 1/1 1000 м
[Cu hum]
+20.1 +2.3 31 +21 +35 комфорт 1018.0 951.9
13 19.05 З 4 30 км 1/1 1000 м
[Cu hum]
+21.6 +0.9 25 +21 +33 комфорт 1017.3 951.6
14 19.05 З 4 30 км 1/1 1000 м
[Cu hum]
+22.6 +0.5 23 +22 +33 комфорт 1016.6 951.1
15 19.05 ЮЗ 5 30 км 1/1 1000 м
[Cu hum]
+23.4 -1.0 20 +22 +29 комфорт 1016.0 950.7
17 19.05 З 6 30 км ясно +22.9 -4.4 16 +21 +23 комфорт 1016.2 950.7
16 19.05 З 6 30 км ясно +23.9 -2.1 18 +22 +26 комфорт 1015.8 950.6
18 19.05 З 7 30 км ясно +22.2 -4.2 17 +21 +21 комфорт 1016.6 951.0 +24.1
19 19.05 З 5 30 км ясно +20.7 -3.2 20 +20 +21 тепло 1017.4 951.5
20 19.05 С 4 30 км ясно +18.2 -1.8 26 +18 +18 по сезону 1019.0 952.4
21 19.05 С 2 30 км ясно +15.9 +0.6 35 +16 +16 по сезону 1020.3 953.1
23 19.05 СВ 2 30 км ясно +13.3 +1.1 43 +13 +13 по сезону 1021.5 953.7
22 19.05 В 2 30 км ясно +14.6 +1.1 40 +14 +14 по сезону 1021.2 953.6
00 20.05 СВ 2 30 км ясно +13.1 +1.7 46 +13 +13 по сезону 1021.7 953.8
01 20.05 В 2 30 км ясно +12.0 +1.7 49 +11 +11 по сезону 1021.9 953.8
02 20.05 штиль 0 30 км ясно +9.4 +1.9 59 +9 +9 по сезону 1022.6 953.8
03 20.05 С 1 30 км н/о +8.8 +2.7 66 +8 +8 прохладно 1022.9 953.9
05 20.05 С 2 30 км н/о +6.9 +2.3 72 +5 +5 прохладно 1024.1 954.6
04 20.05 С 3 30 км ясно +7.4 +2.5 71 +5 +5 прохладно 1023.6 954.2
06 20.05 С 3 30 км ясно +8.5 +3.1 69 +6 +7 прохладно 1024.3 955.2 +6.6
07 20.05 С 3 30 км ясно +10.8 +3.2 59 +9 +12 холодно 1024.2 955.6
08 20.05 С 2 30 км ясно +14.7 +4.3 50 +15 +21 по сезону 1023.1 955.6
09 20.05 СВ 2 30 км ясно +18.1 +3.2 37 +19 +31 опасность
простуды
1022.5 955.7
11 20.05 С 2 30 км ясно +21.8 +1.4 26 +21 +39 комфорт 1021.1 955.2
10 20.05 В 2 30 км ясно +20.3 +0.8 27 +21 +36 комфорт 1021.8 955.5
12 20.05 З 1 30 км ясно +23.3 +1.1 23 +22 +45 комфорт 1020.1 954.5
13 20.05 ЮЗ 2 30 км ясно +24.5 +1.8 23 +23 +42 комфорт 1019.2 953.9
14 20.05 З 2 30 км ясно +25.8 +1.5 20 +24 +41 комфорт 1018.3 953.4
15 20.05 ЮЗ 2 30 км ясно +26.9 +1.1 19 +25 +39 комфорт 1017.4 952.8
17 20.05 СВ 1 30 км 1/0
[Ci fib]
+26.7 -0.6 17 +25 +30 комфорт 1016.8 952.2
16 20.05 В 2 30 км ясно +26.9 +0.3 18 +25 +34 комфорт 1017.1 952.5
18 20.05 Ю 2 30 км 3/0
[Ci fib]
+27.5 -0.8 16 +25 +27 комфорт 1016.5 952.0 +27.6
19 20.05 С 1 30 км 3/0
[Ci fib]
+24.2 +1.0 22 +23 +23 комфорт 1017.4 952.2
20 20.05 С 3 4400 м н/о +20.7 +1.9 29 +21 +21 комфорт 1018.5 952.5
21 20.05 С 3 30 км 9/0
[Cs]
+19.4 +3.0 34 +20 +20 тепло 1019.1 952.8
23 20.05 С 2 30 км 9/0
[Cs]
+15.6 +4.8 49 +16 +16 тепло 1020.3 953.1
22 20.05 штиль 0 30 км 8/0
[Cs]
+16.7 +3.6 42 +17 +17 тепло 1020.0 953.0
00 21.05 СЗ 3 30 км 8/0
[Cs]
+14.7 +5.3 53 +14 +14 по сезону 1020.8 953.3
01 21.05 СЗ 2 30 км 9/0
[Cs]
+14.4 +5.0 53 +14 +14 тепло 1020.5 953.0
02 21.05 СЗ 2 30 км 9/0
[Cs]
+14.1 +5.8 57 +14 +14 тепло 1020.3 952.7
03 21.05 СЗ 3 30 км 9/0
[Cs]
+13.1 +5.4 60 +12 +12 по сезону 1020.3 952.6
05 21.05 СЗ 3 30 км 9/0
[Cs]
+12.6 +5.6 62 +11 +11 тепло 1020.2 952.4
04 21.05 СЗ 3 30 км 9/0
[Cs]
+12.9 +5.5 61 +12 +12 тепло 1020.2 952.5
06 21.05 С 2 30 км 10/0
[Ac As Cs]
+13.4 +6.0 61 +13 +13 тепло 1021.0 953.3 +12.4
07 21.05 С 2 30 км 10/0
[Ac As Cs]
+15.0 +7.7 62 +15 +16 по сезону 1019.7 952.4
08 21.05 С 2 30 км 10/0
[Ac As Cs]
+18.2 +9.0 55 +19 +21 тепло 1018.8 952.4
09 21.05 СВ 3 30 км 10/0
[Ac As Cs]
+20.1 +7.5 44 +21 +25 комфорт 1018.5 952.5
11 21.05 СВ 3 30 км 10/0
[Ac As Cs]
+22.3 +6.5 36 +23 +28 комфорт 1016.9 951.4
10 21.05 СВ 3 30 км 10/0
[Ac As Cs]
+21.6 +7.0 39 +22 +27 комфорт 1017.7 952.1
12 21.05 Ю 1 30 км 10/0
[Ac As Cs]
+23.7 +4.7 29 +23 +32 комфорт 1016.5 951.3
13 21.05 В 2 30 км 10/0
[Ac As Cs]
+24.7 +2.6 24 +24 +31 комфорт 1015.8 950.8
14 21.05 С 3 30 км 10/0
[Ac As Cs]
+24.5 +6.6 32 +25 +29 комфорт 1015.5 950.6
15 21.05 С 2 30 км 10/0
[Ac As Cs]
+25.5 +5.8 28 +25 +30 комфорт 1014.2 949.6
17 21.05 В 3 30 км 10/0
[Ac As Cs]
+25.7 +3.9 24 +25 +26 комфорт 1013.2 948.6
16 21.05 ЮВ 4 30 км 10/0
[Ac As Cs]
+25.9 +3.2 23 +25 +27 комфорт 1013.4 948.9
18 21.05 ЮВ 3 30 км 10/0
[Ac und Cs]
+25.1 +3.5 25 +24 +25 комфорт 1012.7 948.0 +26.6
19 21.05 В 2 30 км 10/0
[Cs]
+24.0 +2.2 24 +23 +23 комфорт 1012.4 947.5
20 21.05 С 3 30 км 9/0
[Cs]
+21.7 +4.4 32 +22 +22 комфорт 1012.4 947.0
21 21.05 СЗ 4 30 км 9/0
[Cs]
+18.9 +7.6 48 +19 +19 тепло 1014.2 948.2
23 21.05 Ю 2 30 км 3/0
[Ci sp]
+16.9 +6.8 51 +17 +17 тепло 1015.3 948.8
22 21.05 СЗ 1 30 км 4/0
[Ac As Cs]
+18.2 +7.2 49 +19 +19 тепло 1014.8 948.6
00 22.05 штиль 0 30 км 1/0
[Ci sp]
+15.7 +6.8 55 +16 +16 тепло 1015.6 948.8
01 22.05 С 2 30 км 5/0
[Cs]
+14.6 +7.1 61 +14 +14 тепло 1015.6 948.5
02 22.05 СЗ 4 30 км 1/0
[Ci sp]
+13.4 +7.7 68 +12 +12 по сезону 1015.9 948.5
03 22.05 СЗ 3 30 км 1/0
[Ci sp]
+12.7 +7.3 70 +11 +11 по сезону 1016.4 948.8
05 22.05 СЗ 2 30 км 1/0
[Ci fib]
+11.4 +7.0 74 +10 +10 по сезону 1017.2 949.3
04 22.05 С 2 30 км 1/0
[Ci sp]
+12.0 +7.4 73 +11 +11 по сезону 1016.5 948.8
06 22.05 С 2 30 км ясно +12.2 +8.2 77 +11 +12 по сезону 1017.5 949.8 +11.3
07 22.05 СЗ 4 30 км ясно +15.3 +8.0 62 +15 +17 по сезону 1017.3 950.3
08 22.05 С 1 28 км ясно +18.3 +7.9 51 +20 +28 тепло 1016.7 950.4
09 22.05 Ю 1 30 км ясно +21.1 +8.2 43 +22 +36 комфорт 1015.9 950.3
11 22.05 ЮЗ 2 30 км 1/0
[Ac trans]
+24.9 +6.7 31 +25 +43 комфорт 1014.6 949.8
10 22.05 З 2 30 км ясно +23.3 +7.8 37 +24 +41 комфорт 1015.2 950.0
12 22.05 ЮВ 3 25 км ясно +26.5 +6.9 29 +26 +44 жарко 1013.8 949.4
13 22.05 ЮЗ 4 30 км 1/1 2000 м
[Cu hum]
+27.7 +7.2 27 +27 +40 жарко 1013.2 949.1
14 22.05 С 2 24 км 1/0
[Ac trans]
+28.1 +6.3 25 +27 +44 жарко 1012.6 948.6
15 22.05 З 3 30 км 3/0
[Ac trans]
+29.1 +5.7 23 +28 +38 жарко 1011.8 948.1
17 22.05 ЮВ 2 30 км 1/1 2000 м
[Cu hum]
+29.8 +5.1 21 +28 +32 жарко 1010.8 947.2
16 22.05 С 2 30 км 3/0
[Ac trans]
+29.1 +4.1 20 +27 +34 жарко 1011.3 947.6
18 22.05 ЮВ 2 30 км 1/1 2000 м
[Cu hum]
+29.1 +5.0 22 +28 +29 жарко 1010.8 947.1 +30.0
19 22.05 ЮВ 1 30 км 3/3 2000 м
[Cu hum]
+27.9 +5.3 24 +27 +27 жарко 1011.2 947.3
20 22.05 штиль 0 30 км ясно +23.3 +4.4 29 +23 +23 комфорт 1012.9 947.8
21 22.05 штиль 0 30 км ясно +20.6 +6.4 40 +21 +21 комфорт 1014.1 948.5
23 22.05 СВ 5 30 км ясно +22.3 +12.0 52 +25 +25 комфорт 1015.0 949.7
22 22.05 С 2 30 км ясно +21.5 +7.8 41 +22 +22 комфорт 1014.8 949.3
00 23.05 С 4 30 км ясно +21.3 +11.6 54 +23 +23 комфорт 1015.9 950.3
01 23.05 СЗ 4 30 км ясно +20.0 +10.2 53 +21 +21 комфорт 1016.5 950.7
02 23.05 С 4 30 км 1/0
[Ci fib]
+18.6 +8.7 52 +19 +19 тепло 1017.0 950.8
03 23.05 СЗ 2 30 км ясно +17.5 +7.7 53 +18 +18 тепло 1017.5 951.0
05 23.05 СВ 2 30 км ясно +17.7 +5.8 46 +18 +18 тепло 1018.1 951.5
04 23.05 С 3 30 км ясно +17.4 +6.7 49 +18 +18 тепло 1017.7 951.1
06 23.05 С 3 30 км ясно +18.4 +6.0 44 +19 +20 тепло 1018.2 951.8 +16.7
07 23.05 С 4 30 км ясно +20.6 +6.3 39 +22 +24 комфорт 1018.1 952.2
08 23.05 СВ 4 30 км ясно +23.1 +6.6 34 +24 +28 комфорт 1017.6 952.2
09 23.05 СВ 3 30 км ясно +24.9 +7.6 33 +25 +34 комфорт 1017.1 952.2
11 23.05 СВ 3 30 км ясно +29.3 +9.1 28 +29 +44 жарко 1015.2 951.4
10 23.05 В 2 30 км ясно +27.2 +9.2 32 +27 +42 жарко 1016.1 951.8
12 23.05 В 3 30 км 3/3
[Cu hum]
+30.5 +8.7 26 +30 +42 жарко 1014.4 950.8
13 23.05 С 3 30 км 3/3
[Cu hum]
+30.1 +8.8 27 +30 +42 жарко 1013.9 950.3
14 23.05 В 2 30 км 4/4
[Cu hum]
+31.0 +8.1 24 +30 +40 жарко 1013.3 949.8
15 23.05 Ю 3 30 км н/о +32.3 +6.7 20 +30 +30 жарко 1012.6 949.4
17 23.05 Ю 3 30 км 4/4
[Cu Sc]
+31.6 +6.6 21 +30 +33 жарко 1012.0 948.7
16 23.05 С 4 25 км 5/5
[Cu Sc]
+32.3 +6.7 20 +30 +34 жарко 1012.0 948.9
18 23.05 СВ 2 30 км 4/4
[Cu Sc]
+31.5 +6.7 21 +30 +31 жарко 1012.0 948.7 +32.7
19 23.05 В 3 30 км 4/4
[Cu Sc]
+29.9 +8.0 25 +29 +29 жарко 1013.0 949.3
20 23.05 СВ 2 30 км 3/0
[Ac trans]
+27.3 +5.8 25 +26 +26 жарко 1014.3 950.0
21 23.05 В 5 30 км н/о +25.7 +5.7 28 +25 +25 комфорт 1015.8 951.1
23 23.05 СВ 1 30 км ясно +21.2 +5.0 35 +22 +22 комфорт 1018.3 952.5
22 23.05 В 2 30 км ясно +22.9 +4.6 30 +23 +23 комфорт 1017.5 952.0
00 24.05 С 2 30 км ясно +20.0 +6.1 40 +21 +21 комфорт 1018.9 952.8
01 24.05 СЗ 2 30 км ясно +18.6 +6.7 46 +19 +19 тепло 1019.3 952.9
02 24.05 С 1 30 км ясно +17.3 +6.8 50 +18 +18 тепло 1019.8 953.0
03 24.05 С 2 30 км ясно +16.4 +7.3 55 +17 +17 тепло 1019.9 952.9

 

Местоположение метеостанции Madrid (Испания): широта 40.45 долгота -3.55 высота над уровнем моря 582 м.

В архиве по умолчанию представлена погода в Madrid за последнюю неделю. Архивные данные за месяц целиком и за предыдущие месяцы, начиная с января 2011 года, Вы можете получить, выбрав интересующий диапазон дат из раскрывающегося списка и нажав кнопку "Ввод!".

Внимание! Время в таблицах - всемирное. Для получения местного времени необходимо прибавить поправку, которая в Madrid равна 1 ч.

Смотрите также архив погоды в соседних городах и на ближайших метеорологических станциях:

Погода в Madrid Airport (Испания) (22 км)
Погода в Guadalajara (Испания) (39 км)
Погода в Navacerrada (Испания) (54 км)
Погода в Segovia (Испания) (74 км)
Погода в Toledo (Испания) (76 км)
Погода в Avila (Испания) (100 км)
Погода в Cuenca (Испания) (128 км)
Погода в Molina de Aragon (Испания) (148 км)
Погода в Ciudad Real (Испания) (167 км)
Погода в Valladolid (Испания) (168 км)

Пояснения к столбцам:

Ветер - указаны скорость ветра в м/с - средняя за 10 мин, порывы в срок и между сроками (в фигурных скобках) и направление, откуда дует ветер: С - северный, СВ - северо-восточный, В - восточный, ЮВ - юго-восточный, Ю - южный, ЮЗ - юго-западный, З - западный, СЗ - северо-западный.
Видимость - горизонтальная дальность видимости в метрах или километрах. При видимости от 1 до 10 км при отсутствии осадков обычно наблюдается дымка, при ухудшении видимости до 1 км и менее - туман. В сухую погоду видимость может ухудшаться дымом, пылью или мглою.
Явления - указаны атмосферные явления, наблюдавшиеся в срок или в последний час перед сроком; фигурными скобками обозначены явления, наблюдавшиеся между сроками (за 1-3 часа до срока); квадратными скобками обозначены град или гололедные отложения с указанием их диаметра в мм.
Облачность - указаны через наклонную черту общая и нижняя облачность в баллах и высота нижней границы облаков в метрах; квадратными скобками обозначены формы облаков: Ci - перистые, Cs - перисто-слоистые, Cc - перисто-кучевые, Ac - высококучевые, As - высокослоистые, Sc - слоисто-кучевые, Ns - слоисто-дождевые, Cu - кучевые, Cb - кучево-дождевые. Подробнее классификацию облаков см. в Атласе облаков (PDF).
T - Температура воздуха - температура, измеренная на высоте 2 м над землей.
Td - Температура точки росы - температура, при понижении до которой содержащийся в воздухе водяной пар достигнет насыщения.
f - Относительная влажность воздуха - влажноcть воздуха, измеренная на высоте 2 м над землей.
Te - Эффективная температура - температура, которую ощущает одетый по сезону человек в тени. Характеристика душности погоды. При расчете учитывается влияние влажности воздуха и скорости ветра на теплоощущения человека.
Tes - Эффективная температура на солнце - температура, которую ощущает человек, с поправкой на солнечный нагрев. Характеристика знойности погоды. Зависит от высоты солнца над горизонтом, облачности и скорости ветра. Ночью, в пасмурную погоду, а также при ветре 12 м/с и более поправка равна нулю.
P - Атмосферное давление - приведенное к уровню моря атмосферное давление.
Po - Атмосферное давление - измеренное на уровне метеостанции атмосферное давление.
Tmin - Минимальная температура - минимум температуры воздуха на высоте 2 м над землей.
Tmax - Максимальная температура - максимум температуры воздуха на высоте 2 м над землей.
R - Количество осадков - Количество выпавших осадков за период времени, мм. При наведении курсора мыши на число - период времени, за который выпало указанное количество осадков.
R24 - Количество осадков - Количество выпавших осадков за 24 часа, мм.
S - Снежный покров - Высота снежного покрова, см. При наведении курсора мыши на число - состояние снежного покрова и степень покрытия местности в баллах.